This is the latest recevied weather packets stored in our database for station/object K5IDL. If no packets are shown the sender has not sent any weather packets the latest 1 day(s).
| Time | Temp. | Humidity | Pressure | Rain* | Wind** | Luminosity | Snow |
|---|---|---|---|---|---|---|---|
| 1778040303 | 17.78° C | 77% | 1010 hPa | 0 mm | - | 0 W/m² | - |
| 1778039998 | 17.78° C | 78% | 1009.9 hPa | 0 mm | - | 0 W/m² | - |
| 1778039392 | 18.33° C | 77% | 1009.8 hPa | 0 mm | - | 0 W/m² | - |
| 1778039089 | 18.33° C | 77% | 1009.8 hPa | 0 mm | - | 0 W/m² | - |
| 1778038786 | 18.33° C | 77% | 1009.8 hPa | 0 mm | - | 0 W/m² | - |
| 1778038484 | 18.89° C | 77% | 1009.5 hPa | 0 mm | - | 0 W/m² | - |
| 1778038180 | 18.89° C | 76% | 1009.7 hPa | 0 mm | - | 0 W/m² | - |
| 1778037878 | 19.44° C | 76% | 1009.7 hPa | 0 mm | - | 0 W/m² | - |
| 1778037574 | 19.44° C | 76% | 1009.6 hPa | 0 mm | - | 0 W/m² | - |
| 1778037271 | 19.44° C | 76% | 1009.5 hPa | 0 mm | - | 0 W/m² | - |
| 1778036969 | 20° C | 75% | 1009.2 hPa | 0 mm | - | 0 W/m² | - |
| 1778036667 | 20° C | 75% | 1009 hPa | 0 mm | - | 0 W/m² | - |
| 1778035757 | 21.11° C | 74% | 1008.9 hPa | 0 mm | - | 0 W/m² | - |
| 1778035454 | 21.11° C | 74% | 1008.7 hPa | 0 mm | - | 0 W/m² | - |
| 1778035150 | 21.11° C | 75% | 1008.6 hPa | 0 mm | - | 0 W/m² | - |
| 1778034847 | 21.11° C | 74% | 1008.5 hPa | 0 mm | - | 0 W/m² | - |
| 1778033939 | 21.67° C | 74% | 1008.1 hPa | 0 mm | - | 0 W/m² | - |
| 1778033636 | 21.67° C | 74% | 1008 hPa | 0 mm | - | 0 W/m² | - |
| 1778033031 | 21.67° C | 74% | 1007.7 hPa | 0 mm | - | 0 W/m² | - |
| 1778032728 | 21.67° C | 74% | 1007.8 hPa | 0 mm | - | 0 W/m² | - |
| 1778032122 | 22.78° C | 72% | 1007.9 hPa | 0 mm | - | 0 W/m² | - |
| 1778031515 | 23.33° C | 71% | 1007.8 hPa | 0 mm | - | 0 W/m² | - |
| 1778031213 | 23.33° C | 70% | 1007.2 hPa | 0 mm | - | 0 W/m² | - |
| 1778030909 | 23.33° C | 70% | 1007 hPa | 0 mm | - | 0 W/m² | - |
| 1778030606 | 23.33° C | 70% | 1007.2 hPa | 0 mm | - | 0 W/m² | - |
* Rain latest hour (hover to see other rain measurements)
** Current wind speed in m/s (hover to see current wind gust speed)